Weather History for Worcester, MA

Change the Weather History Date:

Tuesday, October 12, 2010

  Actual Average Record
Temperature  
Mean Temperature 53 °F 51 °F  
Max Temperature 62 °F 60 °F 87 °F (1938)
Min Temperature 43 °F 43 °F 29 °F (1929)
Degree Days  
Heating Degree Days 12 14  
Month to date heating degree days 142 144  
Since 1 July heating degree days 267 337  
Cooling Degree Days 0 0  
Month to date cooling degree days 0 0  
Year to date cooling degree days 728 468  
Moisture  
Dew Point -    
Average Humidity 65    
Maximum Humidity 82    
Minimum Humidity 47    
Precipitation  
Precipitation T in 0.15 in 1.35 in (2006)
Month to date precipitation 4.08 1.89  
Year to date precipitation 39.86 37.18  
Snow  
Snow 0.00 in 0.00 in T in (1932)
Month to date snowfall 0.0 0.0  
Since 1 July snowfall 0.0 0.0  
Since 1 September snowfall 0.0 0.0  
Snow Depth 0.00 in    
Wind  
Wind Speed 8 mph (North)    
Max Wind Speed 15 mph    
Max Gust Speed 21 mph    
T = Trace of Precipitation, MM = Missing Value Source: NWS Daily Summary

Daily Weather History Graph

Daily Weather History Graph

Search for Another Location

Airport:

Trip Planner

Search our weather history database for the weather conditions in past years. The results will help you decide how hot, cold, wet, or windy it might be!

Date:

Astronomy

Oct. 12, 2010 Rise Set
Actual Time 6:56 AM EDT 6:10 PM EDT
Civil Twilight 6:28 AM EDT 6:38 PM EDT
Nautical Twilight 5:56 AM EDT 7:11 PM EDT
Astronomical Twilight 5:23 AM EDT 7:43 PM EDT
Moon 12:33 PM EDT (10/12) 9:38 PM EDT (10/12)
Length of Visible Light 12h 10m
Length of Day
11h 13m
Waxing Crescent, 28% of the Moon is Illuminated
Oct 12
Waxing Crescent
Oct 14
First Quarter
Oct 22
Full
Oct 30
Last Quarter
Nov 6
New

Hourly Weather History & Observations

Time (EDT) Temp. Windchill Dew Point Humidity Pressure Visibility Wind Dir Wind Speed Gust Speed Precip Events Conditions
12:54 AM 52.0 °F - 41.0 °F 66% 29.79 in 10.0 mi NNE 5.8 mph - N/A   Overcast
1:54 AM 51.1 °F - 42.1 °F 71% 29.79 in 10.0 mi NNE 8.1 mph - N/A   Overcast
2:54 AM 50.0 °F - 44.1 °F 80% 29.77 in 10.0 mi NNE 8.1 mph - 0.00 in Rain Light Rain
3:54 AM 48.9 °F - 42.1 °F 77% 29.76 in 10.0 mi NNE 9.2 mph - 0.00 in   Overcast
4:54 AM 48.0 °F - 41.0 °F 77% 29.76 in 10.0 mi NNE 6.9 mph - N/A   Scattered Clouds
5:54 AM 46.9 °F - 41.0 °F 80% 29.76 in 10.0 mi NNE 5.8 mph - N/A   Clear
6:54 AM 46.9 °F - 39.0 °F 74% 29.77 in 10.0 mi NNE 8.1 mph - N/A   Clear
7:54 AM 46.9 °F - 37.9 °F 71% 29.78 in 10.0 mi NNE 5.8 mph - N/A   Scattered Clouds
8:54 AM 48.9 °F - 37.9 °F 66% 29.79 in 10.0 mi Variable 4.6 mph - N/A   Partly Cloudy
9:54 AM 51.1 °F - 39.9 °F 66% 29.79 in 10.0 mi NE 4.6 mph - N/A   Scattered Clouds
11:54 AM 57.9 °F - 44.1 °F 60% 29.78 in 10.0 mi WNW 12.7 mph - N/A   Partly Cloudy
12:54 PM 60.1 °F - 43.0 °F 53% 29.77 in 10.0 mi NNW 10.4 mph - N/A   Scattered Clouds
1:54 PM 61.0 °F - 41.0 °F 48% 29.76 in 10.0 mi NNW 11.5 mph 18.4 mph N/A   Mostly Cloudy
2:54 PM 59.0 °F - 39.0 °F 48% 29.77 in 10.0 mi NW 9.2 mph - N/A   Mostly Cloudy
3:54 PM 59.0 °F - 39.0 °F 48% 29.79 in 10.0 mi NW 6.9 mph - N/A   Overcast
4:54 PM 57.9 °F - 37.9 °F 47% 29.81 in 10.0 mi NNW 6.9 mph - N/A   Overcast
5:54 PM 57.0 °F - 37.9 °F 49% 29.83 in 10.0 mi NNW 9.2 mph - N/A   Overcast
6:54 PM 54.0 °F - 35.1 °F 49% 29.87 in 10.0 mi NNW 8.1 mph - N/A   Partly Cloudy
7:54 PM 51.1 °F - 33.1 °F 50% 29.88 in 10.0 mi NNW 6.9 mph - N/A   Clear
8:54 PM 50.0 °F - 32.0 °F 50% 29.89 in 10.0 mi NNW 8.1 mph - N/A   Clear
9:54 PM 48.9 °F - 32.0 °F 52% 29.91 in 10.0 mi NNW 9.2 mph - N/A   Clear
10:54 PM 48.0 °F - 32.0 °F 54% 29.91 in 10.0 mi NNW 8.1 mph - N/A   Clear
11:54 PM 44.1 °F 39.5 °F 32.0 °F 63% 29.92 in 10.0 mi NW 8.1 mph - N/A   Clear